Location: Leuk
(46.3174°N, 7.6341°E)
Time: 06:45:46
(UTC+00:00)

MSX - Pass Details

Date: 09 March 2021
Orbit: 894 x 906 km, 98.8° (Epoch: 18 April)

Event Time Altitude Azimuth Distance (km) Brightness Sun altitude
Rises 02:36:30 0° 15° (NNE) 3,525 7.5 -33.4°
Reaches altitude 10° 02:38:55 10° 17° (NNE) 2,579 6.7 -33.1°
Enters shadow 02:43:35 59° 34° (NE) 1,028 4.2 -32.4°
